Weather History for Wheeler AAF, HI

Change the Weather History Date:

Tuesday, January 14, 2014

  Actual Average Record
Temperature  
Mean Temperature 70 °F -  
Max Temperature 76 °F 74 °F 78 °F (2002)
Min Temperature 64 °F 60 °F 54 °F (2012)
Cooling Degree Days 6    
Growing Degree Days 20 (Base 50)    
Moisture  
Dew Point 65 °F    
Average Humidity 86    
Maximum Humidity 100    
Minimum Humidity 63    
Precipitation  
Precipitation 0.25 in - - ()
Sea Level Pressure  
Sea Level Pressure 29.89 in    
Wind  
Wind Speed 3 mph (East)    
Max Wind Speed 13 mph    
Max Gust Speed -    
Visibility 9 miles    
Events Rain    
Averages and records for this station are not official NWS values.
T = Trace of Precipitation, MM = Missing Value Source: NWS Daily Summary

Daily Weather History Graph

Daily Weather History Graph

Search for Another Location

Airport:

Trip Planner

Search our weather history database for the weather conditions in past years. The results will help you decide how hot, cold, wet, or windy it might be!

Date:

Astronomy

Jan. 14, 2014 Rise Set
Actual Time 7:12 AM HST 6:10 PM HST
Civil Twilight 6:48 AM HST 6:34 PM HST
Nautical Twilight 6:21 AM HST 7:01 PM HST
Astronomical Twilight 5:54 AM HST 7:28 PM HST
Moon 5:20 PM HST (1/14) 5:58 AM HST (1/14)
Length of Visible Light 11h 45m
Length of Day
10h 57m
Waxing Gibbous, 99% of the Moon is Illuminated
Jan 14
Waxing Gibbous
Jan 15
Full
Jan 23
Last Quarter
Jan 30
New
Feb 6
First Quarter

Hourly Weather History & Observations

Time (HST) Temp. Dew Point Humidity Pressure Visibility Wind Dir Wind Speed Gust Speed Precip Events Conditions
12:08 AM 68.0 °F 64.4 °F 88% 29.92 in 10.0 mi ESE 4.6 mph - N/A   Mostly Cloudy
12:13 AM 68.0 °F 64.4 °F 88% 29.92 in 10.0 mi Variable 2.3 mph - N/A   Mostly Cloudy
12:23 AM 66.2 °F 64.4 °F 94% 29.92 in 10.0 mi Variable 2.3 mph - N/A   Overcast
12:58 AM 66.7 °F 64.6 °F 93% 29.89 in 10.0 mi SW 2.3 mph - N/A   Mostly Cloudy
1:58 AM 67.3 °F 65.5 °F 94% 29.86 in 10.0 mi Variable 1.2 mph - N/A   Mostly Cloudy
2:58 AM 68.0 °F 64.8 °F 89% 29.86 in 10.0 mi Calm Calm - N/A   Overcast
3:58 AM 66.6 °F 64.6 °F 93% 29.86 in 10.0 mi North 2.3 mph - N/A   Mostly Cloudy
4:58 AM 66.6 °F 64.4 °F 93% 29.86 in 10.0 mi NW 2.3 mph - N/A   Overcast
5:58 AM 66.4 °F 64.4 °F 93% 29.86 in 10.0 mi ESE 3.5 mph - N/A   Mostly Cloudy
6:58 AM 66.6 °F 64.8 °F 94% 29.87 in 10.0 mi SE 3.5 mph - N/A   Mostly Cloudy
7:08 AM 66.2 °F 64.4 °F 94% 29.89 in 9.0 mi SE 3.5 mph - N/A Rain Light Rain
7:23 AM 66.2 °F 66.2 °F 100% 29.90 in 2.0 mi ESE 3.5 mph - N/A Rain Heavy Rain
7:28 AM 68.0 °F 66.2 °F 94% 29.90 in 1.8 mi East 2.3 mph - N/A Rain Heavy Rain
7:33 AM 68.0 °F 66.2 °F 94% 29.90 in 4.0 mi NE 3.5 mph - N/A Rain Light Rain
7:38 AM 68.0 °F 66.2 °F 94% 29.90 in 7.0 mi NNE 3.5 mph - N/A Rain Rain
7:43 AM 68.0 °F 66.2 °F 94% 29.90 in 8.0 mi North 3.5 mph - N/A Rain Light Rain
7:53 AM 68.0 °F 66.2 °F 94% 29.91 in 2.0 mi ESE 2.3 mph - N/A Rain Heavy Rain
7:58 AM 68.0 °F 66.2 °F 94% 29.88 in 2.0 mi East 3.5 mph - 0.24 in Rain Light Rain
8:03 AM 68.0 °F 66.2 °F 94% 29.91 in 5.0 mi East 3.5 mph - N/A Rain Light Rain
8:08 AM 68.0 °F 66.2 °F 94% 29.90 in 9.0 mi ENE 3.5 mph - N/A Rain Light Rain
8:12 AM 68.0 °F 66.2 °F 94% 29.91 in 10.0 mi NE 2.3 mph - N/A   Overcast
8:17 AM 68.0 °F 66.2 °F 94% 29.91 in 10.0 mi ENE 3.5 mph - N/A   Overcast
8:58 AM 69.4 °F 67.6 °F 94% 29.90 in 10.0 mi East 2.3 mph - 0.01 in   Mostly Cloudy
9:03 AM 69.8 °F 68.0 °F 94% 29.92 in 10.0 mi East 2.3 mph - N/A   Mostly Cloudy
9:18 AM 71.6 °F 69.8 °F 94% 29.93 in 10.0 mi East 1.2 mph - N/A   Scattered Clouds
9:23 AM 71.6 °F 68.0 °F 88% 29.93 in 10.0 mi Calm Calm - N/A   Mostly Cloudy
9:28 AM 71.6 °F 68.0 °F 88% 29.93 in 10.0 mi Calm Calm - N/A   Mostly Cloudy
9:58 AM 73.0 °F 66.7 °F 81% 29.92 in 10.0 mi SW 3.5 mph - N/A   Partly Cloudy
10:58 AM 75.9 °F 64.2 °F 67% 29.91 in 10.0 mi Variable 4.6 mph - N/A   Scattered Clouds
11:58 AM 75.6 °F 64.0 °F 67% 29.88 in 10.0 mi West 10.4 mph - N/A   Partly Cloudy
12:58 PM 76.5 °F 64.0 °F 65% 29.86 in 10.0 mi SSW 8.1 mph - N/A   Partly Cloudy
1:58 PM 75.9 °F 63.9 °F 66% 29.84 in 10.0 mi West 12.7 mph - N/A   Scattered Clouds
2:58 PM 76.3 °F 62.8 °F 63% 29.81 in 10.0 mi WSW 11.5 mph - N/A   Clear
3:58 PM 75.0 °F 62.4 °F 65% 29.83 in 10.0 mi Variable 2.3 mph - N/A   Clear
4:58 PM 73.2 °F 62.2 °F 68% 29.85 in 10.0 mi South 2.3 mph - N/A   Clear
5:58 PM 72.0 °F 63.0 °F 73% 29.86 in 10.0 mi Calm Calm - N/A   Scattered Clouds
6:58 PM 69.4 °F 63.1 °F 80% 29.87 in 10.0 mi WSW 4.6 mph - N/A   Clear
7:58 PM 69.3 °F 62.6 °F 79% 29.88 in 10.0 mi West 4.6 mph - N/A   Clear
8:58 PM 68.0 °F 62.6 °F 83% 29.88 in 10.0 mi Variable 1.2 mph - N/A   Scattered Clouds
9:58 PM 66.6 °F 62.2 °F 86% 29.90 in 10.0 mi Variable 1.2 mph - N/A   Clear
10:58 PM 65.7 °F 62.1 °F 88% 29.89 in 10.0 mi North 2.3 mph - N/A   Clear
11:58 PM 64.8 °F 61.9 °F 90% 29.88 in 10.0 mi ESE 2.3 mph - N/A   Clear